CST,Max TemperatureF,Mean TemperatureF,Min TemperatureF,Max Dew PointF,MeanDew PointF,Min DewpointF,Max Humidity, Mean Humidity, Min Humidity, Max Sea Level PressureIn, Mean Sea Level PressureIn, Min Sea Level PressureIn, Max VisibilityMiles, Mean VisibilityMiles, Min VisibilityMiles, Max Wind SpeedMPH, Mean Wind SpeedMPH, Max Gust SpeedMPH,PrecipitationIn, CloudCover, Events, WindDirDegrees
2014-1-1,66,48,31,48,37,28,99,71,44,30.24,30.06,29.90,10,9,4,18,4,32,0.00,0,,171
2014-1-2,41,32,24,28,18,14,74,56,34,30.47,30.36,30.09,10,10,7,15,9,26,0.00,0,,309
2014-1-3,47,36,24,24,20,17,75,56,34,30.47,30.33,30.11,10,10,7,14,4,16,0.00,0,,126
2014-1-4,66,49,32,50,38,24,81,66,47,30.11,29.92,29.78,10,10,7,16,9,25,0.00,4,,152
2014-1-5,59,39,18,55,25,5,91,67,52,30.51,30.10,29.73,10,10,7,20,11,29,0.01,5,,303
2014-1-6,27,20,13,8,2,-2,78,48,29,30.71,30.63,30.52,10,10,7,14,6,21,0.00,0,,317
2014-1-7,45,28,12,16,10,5,79,49,23,30.58,30.47,30.35,10,10,10,12,2,16,0.00,0,,163
2014-1-8,40,35,30,30,21,11,83,54,39,30.34,30.28,30.20,10,10,7,12,7,17,0.00,7,,105
2014-1-9,40,36,33,40,36,30,99,97,84,30.26,30.19,30.06,10,3,0,9,6,,0.13,8,,69
2014-1-10,62,51,40,61,53,40,99,96,87,30.06,29.84,29.68,10,5,0,16,6,24,0.85,7,,152
2014-1-11,64,52,39,45,34,27,99,60,25,30.08,29.99,29.81,10,9,1,10,2,20,0.05,0,,268
2014-1-12,72,54,36,47,31,24,81,46,16,30.06,29.94,29.80,10,10,7,18,5,26,0.00,0,,166
2014-1-13,63,52,40,54,36,25,78,50,24,30.06,29.92,29.78,10,10,7,13,7,21,0.00,1,,269
2014-1-14,63,47,31,36,27,17,77,48,23,30.29,30.10,30.00,10,10,5,15,3,21,0.00,0,,312
2014-1-15,51,42,32,26,20,16,65,46,28,30.38,30.26,30.11,10,10,7,9,1,,0.00,0,,295
2014-1-16,66,50,35,30,22,6,67,39,13,30.13,30.05,30.00,10,10,7,10,2,24,0.00,0,,276
2014-1-17,49,40,32,20,13,8,61,31,19,30.33,30.25,30.13,10,10,7,14,7,24,0.00,0,,301
2014-1-18,66,48,31,28,23,17,63,39,21,30.20,30.09,29.97,10,10,7,17,4,29,0.00,0,,245
2014-1-19,60,46,31,27,24,22,74,44,23,30.29,30.17,30.06,10,9,5,9,3,,0.00,0,,250
2014-1-20,72,54,36,38,30,22,66,42,27,30.16,29.97,29.84,10,9,7,17,2,26,0.00,0,,285
2014-1-21,52,40,27,21,10,-2,63,32,15,30.41,30.28,30.16,10,10,7,22,9,31,0.00,0,,325
2014-1-22,54,38,23,22,17,10,75,43,24,30.22,30.16,30.09,10,10,7,9,1,,0.00,0,,38
2014-1-23,42,34,25,23,10,-2,51,36,25,30.76,30.52,30.22,10,10,7,15,7,23,0.00,0,,360
2014-1-24,40,28,15,13,4,-1,63,36,21,30.76,30.54,30.22,10,10,10,8,3,,0.00,0,,236
2014-1-25,63,45,27,32,24,13,71,47,27,30.22,30.08,29.98,10,10,7,7,2,,0.00,0,,235
2014-1-26,68,52,37,34,31,23,77,50,18,29.98,29.83,29.69,10,10,7,15,2,20,0.00,0,,154
2014-1-27,47,38,28,34,8,-4,68,31,16,30.33,30.16,29.81,10,10,7,18,9,28,0.00,0,,351
2014-1-28,35,27,18,12,5,-4,63,38,25,30.51,30.42,30.34,10,10,7,12,7,18,0.00,1,,354
2014-1-29,44,28,12,14,6,0,81,45,17,30.47,30.37,30.22,10,10,7,8,1,,0.00,0,,172
2014-1-30,53,40,27,39,25,11,65,53,42,30.23,30.03,29.90,10,10,7,16,7,28,0.00,4,,153
2014-1-31,73,62,50,55,49,39,85,68,43,29.93,29.86,29.80,10,9,5,14,8,24,0.00,5,,150